{"data":{"norad_id":50169,"epoch":"2026-09-20T02:50:44.376288Z","epoch_age_seconds":77694,"freshness":"FRESH","line1":"1 50169U 21125P   26263.11856917  .00001203  00000+0  46757-4 0  9997","line2":"2 50169  53.1607  79.7493 0001096  93.1493 266.9635 15.34390022266188","mean_motion":15.34390022,"eccentricity":0.0001096,"inclination_deg":53.1607,"raan_deg":79.7493,"arg_perigee_deg":93.1493,"mean_anomaly_deg":266.9635,"bstar":4.6757e-5,"rev_number":26618,"period_min":93.848368364846,"perigee_km":461.98313774586,"apogee_km":463.48265642731,"semimajor_km":6840.8698970866,"source":"CELESTRAK","updated_at":"2026-09-20T09:00:39.414430Z"}}